Jadwal Kapal Pelni KM Tidar 2019

Jadwal Keberangkatan Kapal KM Tidar – Kapal pelni tidar adalah salah satu kapal penumpang yang sejak lama di oprasikan oleh PT. Pelni untuk rute pelayaran tujuan Tanjung Perak Surabaya, Balikpapan, Makassar, Bau Bau, Namlea, Ambon, Tual, Dobo, Kaimana, Fak Fak, Sorong, Manikwari, Nabire, Serui, Biak, bagi anda yang hendak melakukan perjalanan dengan tujuan rute kapal pelni km tidar di atas tadi anda bisa menumpang atau menggunakan kapal km tidar.

Untuk penyebrangan anda ke tempat tujuan anda, bagi anda yang sedang membutuhkan informasi mengenai jadwal terbaru kapal laut km tidar admin akan memberikan info terbaru mengenai jadwal kapal km tidar bulan ini, perlu anda ketahui untuk pemesanan tiket kapal pelni anda bisa melalui agen pelni yang tersebar di berbagai wilayah maupun kota seperti agen tiket pelni Surabaya, Makassar, Medan, Ambon, Jayapura, Jakarta dan masih banyak lainya.

Jadwal Kapal Tidar Terbaru

Jadwal Kapal Pelni KM Tidar

Untuk pembelian tiket kapal pelni secara online anda bisa langsung menuju website resmi pelni.co.id, untuk pembelian tiket kapal pelni selanjutnya anda bisa melakukan melalui Indomart, Alfamart, Ata Tour, Fast Travel Dan MMBC, admin selalu mengupdate jadwal kapal pelni di setiap bulanya, bagi anda yang ingin mengetahui jadwal kapal pelni lebaran 2019 maupun harga tiket kapal pelni lebaran 2019, admin akan mengupdate jadwal kapal lebaran 2019 di info artikel selanjutnya.

Sebelum admin memberikan informasi jadwal kapal laut KM tidar ada baiknya anda sedikit mengeathui informasi mengenai beberapa fasilitas yang sudah di perbaru oleh pelni guna untuk kenyamanan para penumpang kapal pelni yang hendak melakukan perjalan berlayarnya menuju pelabuhan yang mereka tuju, beberapa fasilitas pelni yang sudah di perbarui yaitu saat ini sudah ada tempat tidur yang layak bagi penumpang kapal pelni, nah untuk mengetahui detail info jadwal terbaru kapal tidar anda bisa melihat tabel di bawah ini mengenai jadwal kapal tidar bulan ini sebagai berikut.

Jadwal Kapal Pelni KM Tidar Terbaru

BERANGKAT DARI PELABUHANTIBA DI PELABUHANWAKTU KEBERANGKATAN KAPAL PELNI TIDARWAKTU TIBA KAPAL PELNI TIDAR
TUALDOBO16-12-2018 | 10:0016-12-2018 | 17:00
DOBOKAIMANA16-12-2018 | 21:0017-12-2018 | 04:00
KAIMANAFAK-FAK17-12-2018 | 06:0017-12-2018 | 15:00
FAK-FAKSORONG17-12-2018 | 19:0018-12-2018 | 09:00
SORONGMANOKWARI18-12-2018 | 13:0019-12-2018 | 02:00
MANOKWARINABIRE19-12-2018 | 05:0019-12-2018 | 15:00
NABIRESERUI19-12-2018 | 17:0019-12-2018 | 23:00
SERUIJAYAPURA20-12-2018 | 01:0020-12-2018 | 20:00
JAYAPURASERUI21-12-2018 | 01:0021-12-2018 | 20:00
SERUINABIRE21-12-2018 | 22:0022-12-2018 | 04:00
NABIREMANOKWARI22-12-2018 | 06:0022-12-2018 | 16:00
MANOKWARISORONG22-12-2018 | 19:0023-12-2018 | 07:00
SORONGAMBON23-12-2018 | 10:0024-12-2018 | 08:00
AMBONNAMLEA [BURU]24-12-2018 | 11:0024-12-2018 | 16:00
NAMLEA [BURU]BAU-BAU24-12-2018 | 18:0025-12-2018 | 16:00
BAU-BAUMAKASSAR25-12-2018 | 18:0026-12-2018 | 08:00
MAKASSARBAU-BAU28-12-2018 | 08:0028-12-2018 | 23:00
BAU-BAUNAMLEA [BURU]29-12-2018 | 01:0030-12-2018 | 01:00
NAMLEA [BURU]AMBON30-12-2018 | 03:0030-12-2018 | 08:00
AMBONTUAL30-12-2018 | 11:0031-12-2018 | 06:00
TUALDOBO31-12-2018 | 10:0031-12-2018 | 17:00
DOBOKAIMANA31-12-2018 | 19:0001-01-2019 | 02:00
KAIMANAFAK-FAK01-01-2019 | 04:0001-01-2019 | 13:00
FAK-FAKAMBON01-01-2019 | 17:0002-01-2019 | 11:00
AMBONSORONG02-01-2019 | 14:0003-01-2019 | 11:00
SORONGMANOKWARI03-01-2019 | 14:0004-01-2019 | 03:00
MANOKWARINABIRE04-01-2019 | 06:0004-01-2019 | 16:00
NABIRESERUI04-01-2019 | 18:0005-01-2019 | 00:01
SERUIBIAK05-01-2019 | 02:0005-01-2019 | 10:00
BIAKJAYAPURA05-01-2019 | 12:0006-01-2019 | 07:00
JAYAPURASERUI06-01-2019 | 11:0007-01-2019 | 06:00
SERUINABIRE07-01-2019 | 08:0007-01-2019 | 14:00
NABIREMANOKWARI07-01-2019 | 16:0008-01-2019 | 02:00
MANOKWARISORONG08-01-2019 | 05:0008-01-2019 | 17:00
SORONGFAK-FAK08-01-2019 | 20:0009-01-2019 | 10:00
FAK-FAKKAIMANA09-01-2019 | 13:0009-01-2019 | 21:00
KAIMANADOBO09-01-2019 | 23:0010-01-2019 | 07:00
DOBOTUAL10-01-2019 | 09:0010-01-2019 | 16:00
TUALAMBON10-01-2019 | 18:0011-01-2019 | 13:00
AMBONNAMLEA [BURU]11-01-2019 | 15:0011-01-2019 | 20:00
NAMLEA [BURU]BAU-BAU11-01-2019 | 22:0012-01-2019 | 20:00
BAU-BAUMAKASSAR12-01-2019 | 22:0013-01-2019 | 12:00
MAKASSARBAU-BAU13-01-2019 | 23:5914-01-2019 | 15:00
BAU-BAUNAMLEA [BURU]14-01-2019 | 17:0015-01-2019 | 17:00
NAMLEA [BURU]AMBON15-01-2019 | 19:0016-01-2019 | 00:01
AMBONTUAL16-01-2019 | 03:0016-01-2019 | 22:00
TUALDOBO17-01-2019 | 01:0017-01-2019 | 08:00
DOBOKAIMANA17-01-2019 | 10:0017-01-2019 | 17:00
KAIMANAFAK-FAK17-01-2019 | 19:0018-01-2019 | 04:00
FAK-FAKSORONG18-01-2019 | 07:0018-01-2019 | 21:00
SORONGMANOKWARI18-01-2019 | 23:5919-01-2019 | 13:00
MANOKWARINABIRE19-01-2019 | 16:0020-01-2019 | 02:00
NABIREMANOKWARI20-01-2019 | 04:0020-01-2019 | 14:00
MANOKWARISORONG20-01-2019 | 17:0021-01-2019 | 05:00
SORONGFAK-FAK21-01-2019 | 08:0021-01-2019 | 22:00
FAK-FAKKAIMANA22-01-2019 | 01:0022-01-2019 | 09:00
KAIMANADOBO22-01-2019 | 11:0022-01-2019 | 19:00
DOBOTUAL22-01-2019 | 21:0023-01-2019 | 04:00
TUALAMBON23-01-2019 | 06:0024-01-2019 | 01:00
AMBONNAMLEA [BURU]24-01-2019 | 03:0024-01-2019 | 08:00
NAMLEA [BURU]BAU-BAU24-01-2019 | 10:0025-01-2019 | 08:00
BAU-BAUMAKASSAR25-01-2019 | 10:0026-01-2019 | 00:01

Keterangan

  • Perlu anda ketahui bahwa jadwal keberangkatan kapal pelni tidar ini, sewaktu-waktu bisa mengalami perubahan tanpa adanya pemberitahuan terlebih dahulu yang disebabkan banyak faktor, seperti karena keterlambatan keberangkatan dari pelabuhan sebelumnya atau disebabkan oleh penyebab lainnya.
  • Kapal pelni tidar ini hanya menyediakan tiket kelas ekonomi saja, jadi anda jangan berharap untuk mencari tiket kelas 1 atau kelas 2.
  • Harga tiket kapal pelni ini dibedakan berdasarkan kelompok usia tertentu yang terbagi ke dalam 3 golongan yaitu bayi (0-23 bulan), anak (2-11 tahun) dan dewasa ( > 11 tahun)

Harga Tiket Kapal Laut Pelni KM Tidar

  1. Harga Tiket Pelni Bau Bau – Makassar Rp 154.000 Rp 21.000
  2. Harga Tiket Pelni Manokwari – Sorong Rp 145.500 Rp 20.000

Baca Juga : Jadwal Kapal Sirimau

Informasi Lebih Lanjut Tentang  Jadwal Kapal Pelni Dan Tiket Kapal PELNI 2019 Silahkan Melalui Call Center

  • PSTN Jabodetabek: 162
  • Handphone: 021 162
  • PSTN Luar Jabodetabek: 021 21 88 7000
  • Fax: +62 21 6385 4130
  • E-mail: [email protected]

Jadwal Kapal Tidar Januari 2019 | Jadwal KM Tidar Februari 2019 | Jadwal Kapal Motor Tidar Maret 2019 | Jadwal Kapal Pelni Tidar April 2019 | Jadwal Kapal Laut Tidar Mei 2019 | Jadwal Keberangkatan Kapal Tidar Juni 2019 | Jadwal Keberangkatan KM Tidar Juli 2019 | Jadwal Keberangkatan Kapal Motor Tidar Agustus 2019 | Jadwal Keberangkatan Kapal Pelni Tidar September 2019 | Jadwal Keberangkatan Kapal Laut Tidar Oktober 2019 | Jadwal Terbaru Kapal Tidar November Tahun 2019 | Jadwal Terbaru Kapal Pelni Tidar Desember Tahun 2019 | Jadwal Kalpal Tidar Lebaran 2019 bisa memperoleh informasi yang anda cari tentang “Jadwal Terbaru Kapal Pelni 2019.